Regional Weather Roundup
Issued by NWS Nashville, TN

Home | Current Version | Previous Version | Text Only | Print | Product List | Glossary On
Versions: 1 2 3 4 5 6 7 8 9 10 11 12 13 14 15 16 17 18 19 20 21 22 23 24 25 26 27 28 29 30 31 32 33 34 35 36 37 38 39 40 41 42 43 44 45 46 47 48 49 50
000
ASUS44 KOHX 172010
RWROHX
MIDDLE TENNESSEE HOURLY WEATHER ROUNDUP
NATIONAL WEATHER SERVICE NASHVILLE TN
200 PM CST TUE JAN 17 2017

NOTE: "FAIR" INDICATES FEW OR NO CLOUDS BELOW 12,000 FEET WITH
NO SIGNIFICANT WEATHER AND/OR OBSTRUCTIONS TO VISIBILITY.

* THESE REPORTS ARE NOT UNDER NWS QUALITY CONTROL AND MAY NOT
  REPORT WEATHER SUCH AS PRECIPITATION AND FOG.


TNZ005>011-023>034-057-059-062>066-078-080-172100
...NORTHERN MIDDLE TENNESSEE...

CITY           SKY/WX    TMP DP  RH WIND       PRES   REMARKS
CLARKSVILLE    CLOUDY    59  46  62 W14G21    30.00F
CROSSVILLE     LGT RAIN  60  58  92 SW8       30.05F
GALLATIN       PTSUNNY   63  55  77 SW8       30.03F
DICKSON        CLOUDY    57  51  80 W12       30.02F
LEBANON        CLOUDY    61  58  90 W9        30.00S
NASHVILLE      CLOUDY    62  54  74 W7        30.01S
PORTLAND       SUNNY     61  55  82 VRB6G15   30.00F
SMYRNA         CLOUDY    63  61  94 W6        30.02F
SPRINGFIELD    MOSUNNY   59  54  82 W8        29.99
WEST NASHVILLE MOSUNNY   61  54  77 SW10      30.01F
$$
TNZ056-058-060-061-075>077-079-093>097-172100
...SOUTHERN MIDDLE TENNESSEE...

CITY           SKY/WX    TMP DP  RH WIND       PRES   REMARKS
COLUMBIA       PTSUNNY  N/A N/A N/A SW14      30.00F
FAYETTEVILLE   CLOUDY    64  63  94 SW9       30.07R FOG
LEWISBURG      CLOUDY    63  62  96 SW7       30.02
MCMINNVILLE    CLOUDY    63  63 100 W10       30.04S
SHELBYVILLE    CLOUDY    64  64 100 SW9       30.04F
TULLAHOMA      CLOUDY    63  63 100 SW12      30.06S
WINCHESTER     CLOUDY    64  61  88 SW12      30.06F
$$


...KEY TO REMARKS...
VSB - VISIBILITY IN MILES
WCI - WIND CHILL INDEX
HX  - HEAT INDEX




USA.gov is the U.S. government's official web portal to all federal, state and local government web resources and services.